Theta_e
310 311 312 315 316 315 314 313 314 315 316 316 318 321 324 324 321 318 317 318 319 320 319 317 318 317 317 317 316 316 317 316 317 316 316 317 317 317 318 317 318 318 317 317 317 317 317 317 318 318 317 316 316 317 318 317 318 320 319 320 320 319 319 317 313 316 318 320 321 321 321 322 321 320 323 323 321 319 315 316 317 314 316 324 329 331 336
310 311 312 315 316 315 314 313 314 316 317 316 316 321 324 323 320 317 317 318 318 320 319 317 318 317 317 317 316 317 317 316 317 317 317 318 317 317 318 317 317 318 318 318 318 317 316 317 317 318 317 316 315 317 316 317 317 316 317 320 318 317 318 317 314 314 314 315 317 317 318 320 319 320 324 324 322 323 322 320 320 316 314 318 326 331 334
310 311 312 315 316 315 314 313 313 316 317 317 318 322 324 323 323 319 318 318 318 319 318 318 317 317 317 317 316 316 317 316 316 317 316 316 317 318 318 317 316 318 318 318 319 318 317 318 318 317 316 316 316 316 315 316 314 315 322 324 318 318 320 319 317 315 316 316 314 313 315 317 320 321 322 322 322 322 320 317 316 316 316 321 328 331 333
310 311 312 315 317 315 314 313 314 315 317 318 319 324 326 324 323 321 318 317 318 317 317 317 318 317 317 318 317 316 316 315 315 315 316 317 316 317 317 317 317 317 317 318 318 318 319 319 318 318 317 316 315 315 315 314 314 322 330 325 316 320 323 322 322 319 318 318 317 319 319 316 315 317 318 321 321 322 321 316 315 318 320 323 330 333 332
309 311 313 314 317 315 314 313 313 315 317 319 321 326 327 324 320 320 320 320 318 317 317 317 317 317 319 319 317 316 315 315 314 314 315 315 315 316 316 317 318 317 318 319 318 319 320 319 319 319 317 316 315 315 315 314 316 324 327 318 314 320 319 320 323 320 320 320 319 320 320 316 314 316 317 319 321 322 319 315 318 321 319 322 333 336 331
308 311 312 314 317 315 314 313 313 315 317 319 323 328 326 321 318 316 319 320 319 318 317 317 316 316 317 317 317 317 316 317 316 315 315 315 314 317 318 318 319 319 319 320 320 320 320 319 319 320 318 317 315 315 315 315 315 319 319 314 317 319 316 317 319 317 319 321 319 320 320 318 318 317 317 318 319 319 317 317 321 322 320 325 335 336 332
308 311 312 314 317 315 314 313 313 315 316 319 326 328 323 320 319 316 316 317 318 316 314 317 317 316 317 318 317 317 316 315 316 315 316 316 315 317 319 317 317 318 319 322 323 322 321 320 321 322 320 319 317 317 318 316 315 316 316 317 317 316 316 320 317 315 317 318 318 319 318 317 318 317 318 318 317 317 318 319 322 324 325 332 335 335 335
308 311 312 314 316 316 315 314 313 314 316 323 328 324 320 322 321 320 321 318 316 315 315 317 317 315 318 319 317 316 316 315 315 316 317 317 316 317 318 317 317 318 319 322 323 322 322 323 323 322 321 319 319 321 320 318 317 316 316 318 317 315 316 322 320 315 315 317 317 318 317 316 316 316 318 318 317 317 318 320 322 324 328 333 335 333 334
307 310 312 313 316 316 315 315 313 314 318 327 329 320 319 324 321 321 324 321 316 317 317 317 319 319 319 318 316 316 317 315 315 315 315 317 317 317 317 317 318 319 319 320 320 319 320 321 320 320 319 319 319 320 320 318 318 318 316 317 317 316 316 320 319 314 312 314 316 315 316 315 312 313 315 316 315 315 316 319 321 322 324 329 330 329 332
307 310 312 312 315 317 315 315 315 315 319 328 331 323 321 325 324 322 324 322 317 316 316 317 320 320 319 317 317 317 316 315 317 317 316 315 316 317 317 318 318 320 321 319 318 317 317 317 317 317 316 316 316 317 316 315 317 319 319 317 317 317 316 317 316 312 310 313 315 314 312 311 310 311 314 315 316 316 316 318 320 322 323 324 327 330 333
307 308 311 312 314 317 316 316 316 317 321 325 329 328 321 323 326 326 326 325 319 317 318 318 318 319 317 316 316 316 316 316 318 318 316 315 315 317 318 320 321 321 320 318 316 315 315 315 315 315 315 314 315 315 314 314 315 317 318 317 318 319 318 318 317 312 310 312 314 313 311 309 310 314 316 317 317 316 316 316 319 323 326 325 328 333 334
308 308 311 311 313 316 317 316 316 318 321 323 327 328 322 322 326 327 327 325 321 317 318 319 317 316 316 316 317 317 318 317 318 317 316 316 317 318 318 320 322 320 318 316 315 314 314 315 315 315 315 314 314 315 313 314 315 315 315 317 319 319 317 318 318 315 312 313 314 312 311 311 314 318 318 317 317 317 317 318 319 323 327 328 330 332 333
309 307 310 312 312 315 317 317 317 318 320 323 326 327 323 321 326 328 327 326 323 320 318 317 316 316 316 317 318 317 317 317 316 317 317 317 318 318 318 319 319 317 316 316 316 317 318 317 317 317 317 315 315 315 314 314 315 314 314 316 319 320 319 317 317 317 315 314 313 314 315 316 317 318 318 317 318 319 319 319 321 323 326 329 330 331 331
310 306 310 311 311 313 316 318 317 317 320 322 325 327 324 322 326 327 329 330 326 319 317 317 317 316 318 318 317 317 317 316 317 317 317 318 319 318 317 317 316 317 316 316 317 320 321 320 318 318 318 317 317 317 316 315 316 315 316 316 317 320 322 320 318 317 315 311 312 315 316 317 318 318 318 317 318 318 318 317 321 324 325 326 330 330 329
310 306 309 311 311 312 314 317 317 317 318 320 324 327 325 323 326 328 329 331 327 319 317 320 319 318 319 318 317 318 319 317 318 319 317 319 320 318 316 316 316 316 316 317 319 321 321 320 319 318 318 318 318 319 319 318 316 315 316 317 317 317 320 321 321 318 314 311 312 313 313 314 317 319 319 318 318 320 318 316 319 323 321 322 327 329 328
308 305 308 310 312 312 312 315 316 316 317 318 322 328 326 322 325 329 329 330 327 323 321 321 319 319 320 318 317 320 321 320 321 320 318 319 320 317 315 316 316 316 316 318 320 321 320 320 318 317 318 319 319 319 320 320 318 316 315 316 317 317 318 320 321 319 316 314 313 312 313 317 320 321 321 320 319 321 318 313 315 322 322 321 326 327 326
308 305 308 310 311 312 312 314 315 316 317 316 319 325 327 323 324 328 330 329 327 323 320 318 317 318 320 319 318 319 321 321 322 321 321 322 321 317 316 316 316 317 318 319 320 320 319 318 317 316 318 321 320 319 319 319 318 318 317 315 316 317 317 316 316 316 316 316 313 312 316 321 323 321 320 318 317 318 315 311 314 322 323 322 325 326 324
309 305 307 309 311 312 312 312 314 314 316 316 317 323 327 324 324 327 328 327 326 322 317 316 317 318 321 322 321 320 320 321 320 320 322 323 321 319 319 317 317 317 318 318 321 321 319 318 318 316 317 322 321 317 316 317 316 317 320 318 316 316 316 314 314 312 312 313 313 313 319 324 323 320 319 317 314 314 313 315 321 325 323 322 323 324 323
310 305 306 308 310 312 312 312 313 314 315 315 317 322 327 325 323 325 326 325 325 324 320 317 317 318 321 322 320 319 319 320 320 321 321 323 323 321 318 318 318 319 319 318 320 322 319 317 320 319 317 321 323 319 318 318 316 315 319 320 318 317 316 315 314 312 311 312 311 311 318 326 324 320 319 316 314 315 319 324 327 324 322 322 323 323 323
309 305 306 307 309 312 312 312 312 313 314 315 315 320 326 326 324 324 325 324 324 323 323 319 317 317 319 318 319 319 318 318 319 320 321 323 323 320 320 320 318 318 320 319 319 320 319 318 321 321 317 318 322 320 319 319 318 316 317 319 320 319 317 315 315 314 313 313 311 312 318 325 324 320 320 319 318 322 326 327 325 323 323 323 322 322 322
308 305 306 306 308 310 312 312 312 312 313 314 314 318 324 327 326 324 324 324 323 323 323 322 320 319 319 317 318 320 320 320 320 320 321 323 323 320 321 323 320 318 321 321 319 320 321 319 320 321 319 319 321 320 319 319 319 318 318 318 320 321 318 316 318 317 315 313 314 317 322 324 322 321 323 323 323 325 327 324 324 323 322 321 322 322 321
310 306 306 306 307 310 311 312 312 312 312 313 314 319 325 327 326 324 322 323 323 322 321 321 320 318 317 317 318 319 319 320 322 322 322 323 323 321 321 323 322 321 321 322 321 322 322 320 320 321 320 320 320 320 319 318 318 319 319 317 318 319 321 321 322 321 319 317 319 322 323 324 322 321 323 324 324 324 323 323 324 323 321 321 321 321 320
310 306 306 306 306 308 311 312 312 313 313 312 313 319 324 324 323 322 322 324 325 323 321 320 319 318 317 316 316 317 318 319 320 321 322 322 322 321 319 320 321 321 320 321 322 323 322 322 322 321 321 322 320 320 321 319 318 319 320 318 317 318 321 323 323 322 320 320 321 321 321 322 322 321 321 323 323 323 322 321 321 321 320 320 320 320 320
311 307 307 306 306 307 310 311 312 313 313 312 311 314 318 322 323 323 322 323 324 323 321 321 319 320 321 320 318 317 317 317 318 319 320 320 321 321 321 320 320 321 322 322 322 322 321 321 322 321 322 322 321 320 320 320 320 321 320 319 319 319 319 320 321 320 319 320 320 321 321 322 322 320 320 322 322 322 320 318 318 318 318 318 318 319 319
312 308 307 306 305 306 308 311 312 313 313 313 312 314 320 325 325 323 321 322 323 323 322 321 320 321 321 320 319 318 318 317 317 317 318 318 319 320 321 321 321 321 322 322 322 322 321 320 320 321 321 322 321 320 321 321 321 321 319 320 321 321 320 320 321 320 318 319 320 321 320 321 321 321 320 320 321 322 320 318 318 318 318 318 318 318 318
312 308 307 306 306 306 307 310 312 313 313 313 312 316 322 325 323 322 322 323 323 322 321 322 322 322 321 319 318 319 320 318 318 319 318 319 319 318 319 320 322 322 322 322 321 321 322 322 322 321 322 323 322 321 321 322 322 320 320 321 322 321 319 320 321 321 320 319 320 320 320 319 320 320 319 320 320 321 320 319 318 318 318 318 318 317 317
313 309 307 306 306 306 306 309 311 312 313 313 313 315 320 323 323 322 323 323 324 324 323 322 323 323 321 320 320 321 320 319 319 319 318 318 319 319 319 320 321 322 322 322 322 321 322 322 322 322 322 323 323 322 321 322 322 322 322 321 321 321 322 321 321 321 321 321 321 323 322 321 320 320 320 320 320 319 320 320 319 319 319 318 318 318 317
313 309 307 307 306 306 306 308 311 312 313 313 313 315 319 322 322 321 321 321 323 324 322 322 323 322 321 320 320 320 320 319 319 319 318 319 318 319 320 320 321 321 321 321 321 322 323 323 322 322 323 324 323 323 322 322 322 322 322 322 322 324 324 325 324 323 322 322 323 323 322 322 321 320 320 320 319 319 320 320 320 320 320 319 318 318 318
313 309 307 307 306 306 306 308 311 312 312 313 315 320 323 323 322 322 321 320 321 322 322 322 321 321 321 322 321 320 320 320 319 319 319 319 319 320 321 321 321 321 322 322 324 325 326 324 324 325 325 324 324 324 323 323 323 323 323 324 324 324 324 325 325 324 323 323 324 323 323 322 322 321 320 321 320 319 319 319 319 319 319 319 319 319 318
312 309 308 307 306 306 306 308 311 312 312 315 319 323 325 323 322 321 319 319 321 323 323 323 323 321 321 322 322 321 321 320 320 320 320 320 321 322 321 321 322 321 321 324 325 325 325 324 325 324 323 323 324 324 323 323 323 324 323 323 324 324 324 323 323 323 323 323 323 322 321 321 321 320 320 320 320 320 319 319 319 319 318 318 318 319 319
312 309 308 307 306 306 308 310 312 312 313 317 322 324 324 324 324 320 316 318 322 323 323 322 322 321 321 322 321 320 322 321 321 321 322 323 324 324 323 323 324 323 323 326 326 324 323 323 324 323 322 323 323 323 323 323 323 323 323 323 323 323 323 322 321 321 322 321 321 320 320 320 319 319 320 320 320 320 321 321 320 319 318 318 318 318 318
312 309 308 306 306 308 310 312 312 312 315 319 322 321 320 320 319 316 315 318 322 323 322 322 321 321 324 325 324 321 321 322 322 324 325 325 326 325 324 324 325 324 324 325 325 324 323 323 324 323 323 322 322 322 323 323 322 322 322 322 322 323 322 321 320 321 320 320 320 320 320 320 319 319 320 320 320 320 320 321 321 318 318 318 318 318 318
311 308 306 307 309 311 313 313 312 314 316 318 318 318 317 316 314 313 315 319 323 323 322 321 322 323 325 326 325 323 321 322 324 324 325 326 326 325 324 323 324 324 323 324 323 323 322 322 323 323 323 322 321 322 322 322 323 322 321 321 321 321 321 320 320 320 320 320 320 320 320 320 320 319 320 320 320 320 320 320 319 318 318 318 318 318 318
310 307 307 310 312 313 314 315 316 316 317 319 320 320 318 317 315 315 317 321 323 322 321 322 323 324 323 324 325 324 321 322 324 324 324 325 325 323 322 323 323 323 322 322 322 322 322 322 322 322 322 321 321 322 322 322 321 321 321 321 321 320 320 319 319 320 320 319 319 319 319 320 320 319 319 319 319 319 320 319 319 318 318 318 318 317 317
307 307 310 313 313 313 315 317 317 318 321 323 322 321 319 317 315 316 319 322 323 323 324 324 324 325 325 325 326 324 321 321 323 323 322 323 323 322 321 323 323 322 322 322 322 322 322 322 321 321 321 321 321 321 321 320 320 320 320 320 320 319 319 319 319 319 319 319 318 318 318 318 318 318 318 318 318 319 319 319 319 318 317 318 318 317 317
306 310 313 314 314 315 317 318 319 321 323 323 322 320 318 316 316 317 320 321 322 324 325 325 325 326 326 325 325 325 322 321 322 323 322 323 323 323 322 322 323 322 321 322 322 321 322 322 321 320 320 319 320 321 320 320 321 321 320 320 319 317 317 317 317 317 317 317 317 317 317 317 318 318 317 317 318 319 319 319 318 318 318 318 317 317 318
309 313 314 315 316 318 321 322 322 322 322 320 318 318 317 317 318 320 320 320 321 322 323 324 325 325 325 325 325 324 322 321 322 323 323 322 322 322 322 322 322 321 320 320 321 321 320 320 320 320 320 320 320 321 320 319 320 320 319 318 317 316 316 316 315 315 315 315 315 316 316 316 316 316 316 316 317 318 318 319 319 319 319 318 317 317 317
312 314 315 317 320 322 323 323 321 320 318 317 317 319 320 320 322 322 321 321 322 322 322 323 325 324 323 324 324 323 322 321 320 322 323 321 320 321 321 321 320 320 319 320 320 320 320 320 320 321 321 320 320 319 319 319 319 318 317 316 315 314 314 314 314 314 314 314 315 315 315 315 315 315 316 316 316 317 318 319 319 320 320 319 319 318 318
314 315 318 321 322 322 323 322 319 318 318 319 320 322 323 322 322 323 323 323 323 324 323 323 325 324 323 323 323 322 322 321 320 321 322 320 318 319 320 319 319 318 318 318 318 318 319 320 320 319 319 320 319 318 318 317 317 316 315 314 314 313 313 313 313 313 313 313 313 314 314 314 314 314 315 315 315 317 318 318 318 319 319 317 317 318 317
316 319 321 322 322 322 321 318 317 318 321 322 322 323 324 323 323 324 324 323 324 324 324 324 324 323 321 322 323 322 321 320 320 321 321 319 318 319 319 319 319 318 317 317 317 318 318 318 317 318 317 317 317 316 315 314 314 313 313 313 313 313 313 312 312 313 312 312 312 313 313 313 313 313 314 314 315 316 318 318 318 318 317 316 316 316 316
320 322 322 321 321 321 320 319 319 321 322 323 323 323 323 323 324 324 324 325 325 324 323 323 323 323 322 321 322 323 322 320 320 320 319 319 320 319 318 319 319 317 316 317 318 318 318 317 316 317 314 312 312 312 311 311 311 312 312 312 313 312 312 312 312 312 312 312 312 312 313 313 313 313 313 314 314 316 318 318 317 317 317 316 316 315 313
319 320 321 321 320 319 320 320 322 322 322 322 323 323 322 323 326 327 325 325 324 323 322 322 322 322 322 321 320 322 322 321 320 319 319 319 319 318 317 318 319 318 317 317 317 317 317 316 315 315 314 312 312 311 311 311 311 312 312 312 312 311 311 311 311 311 311 311 312 312 312 312 312 312 313 314 315 316 317 318 317 318 317 316 315 314 312
317 317 319 320 320 320 321 321 321 322 322 321 321 322 322 323 326 327 325 324 323 322 322 322 321 321 321 321 320 321 322 321 319 319 319 319 319 319 318 319 319 318 317 317 317 317 317 315 313 314 314 313 313 312 312 311 311 311 310 311 310 310 310 310 309 309 309 309 310 310 310 311 311 311 312 314 316 317 317 318 318 318 316 314 313 312 311
318 318 319 320 320 320 321 321 322 324 324 321 321 324 325 325 326 326 325 324 324 322 321 321 320 320 321 321 320 320 321 321 319 318 318 319 319 319 318 318 318 316 315 315 316 316 316 314 313 312 313 312 312 311 310 310 310 310 309 309 309 308 308 308 308 308 308 308 309 309 309 310 311 311 311 314 316 317 316 317 318 317 315 313 313 312 311
319 319 319 321 321 320 320 320 321 323 324 323 321 323 325 325 325 325 323 322 322 322 321 321 320 320 320 320 318 318 319 319 318 318 319 319 319 318 317 316 316 315 314 314 312 311 312 312 312 311 311 311 310 310 309 309 309 308 308 308 308 308 308 308 308 308 308 308 308 308 309 310 310 310 311 314 316 316 316 317 317 315 314 313 313 312 310
320 316 316 320 321 319 318 319 318 319 321 323 323 324 324 323 324 324 323 321 321 321 320 320 321 320 318 318 317 316 317 318 318 318 318 318 317 317 315 313 313 313 312 311 309 308 309 310 310 310 310 310 309 309 309 308 308 308 307 308 307 307 308 308 308 308 308 308 308 308 308 309 310 310 312 313 314 315 315 315 314 313 312 312 312 311 310
319 315 315 318 319 318 317 318 318 319 321 322 323 324 325 324 323 323 322 320 320 321 320 320 320 319 317 316 315 314 315 316 317 316 316 316 315 314 312 311 311 311 309 308 308 308 309 310 309 309 309 309 309 309 308 308 308 308 308 308 307 307 308 308 308 308 308 308 308 308 308 308 309 310 312 313 313 313 314 313 312 311 311 311 310 309 309
318 316 317 318 318 318 317 318 320 322 323 323 324 325 325 323 322 322 322 319 319 320 321 320 318 316 316 316 315 312 313 314 314 314 314 314 313 311 310 310 310 310 308 307 308 309 310 309 309 309 309 309 309 309 309 308 308 308 308 308 308 308 308 308 308 308 308 308 308 308 308 307 309 310 312 312 312 312 312 312 311 311 310 310 309 308 308
317 317 317 318 318 318 318 319 321 323 323 322 323 323 323 321 321 322 321 320 319 320 319 318 317 315 314 314 312 310 310 312 312 312 312 311 311 310 310 310 309 309 308 308 309 309 309 309 309 309 309 309 309 309 309 308 308 308 308 309 309 309 309 309 308 308 308 308 308 308 307 307 309 311 311 312 311 310 309 309 309 309 308 308 307 307 308
317 317 317 317 318 320 322 323 324 325 325 324 324 323 322 321 323 323 321 319 320 320 318 317 317 316 314 311 309 309 310 311 311 311 310 311 311 310 309 309 309 308 308 309 309 308 308 308 309 310 310 309 309 309 308 308 308 308 309 309 309 309 310 310 309 309 308 307 307 307 307 307 309 311 311 310 310 309 309 308 308 308 308 308 308 308 308
316 317 317 317 318 320 322 323 324 324 324 324 325 324 322 321 322 324 322 320 319 319 317 315 315 314 312 310 310 310 310 310 310 311 310 311 310 309 309 309 309 308 308 308 308 308 308 309 309 309 309 309 309 309 308 308 308 309 309 309 310 310 310 310 310 310 309 307 307 307 307 307 308 310 311 311 310 310 309 309 309 308 309 309 309 308 308
315 316 317 318 318 319 321 325 326 326 325 324 324 323 322 321 322 323 321 319 318 318 316 314 313 313 312 310 311 311 311 310 311 311 310 310 310 310 310 310 309 308 307 308 307 308 308 309 309 309 310 310 309 309 309 308 309 309 309 309 309 309 309 309 310 309 308 307 306 307 307 307 308 310 310 310 309 310 310 310 309 309 309 309 309 308 308
Wind_Speed
25 26 26 26 26 28 29 30 31 32 31 24 20 15 8 5 1 4 4 3 6 6 2 1 1 1 1 1 2 2 2 2 3 1 2 3 1 1 2 2 5 3 1 1 3 0 5 6 5 6 7 8 8 6 9 12 9 7 8 8 9 6 3 3 3 1 3 4 2 3 3 5 6 5 4 4 2 3 5 3 4 4 3 9 8 7 7
25 25 25 25 25 27 28 29 29 30 28 23 16 10 6 6 3 4 5 4 8 5 1 2 1 3 1 1 2 2 4 6 5 4 5 5 3 2 3 2 2 3 2 2 1 4 3 2 3 4 6 6 5 7 9 11 9 7 7 7 7 5 2 1 2 3 4 4 3 5 6 5 5 7 5 3 5 8 8 4 3 5 4 3 5 6 7
24 24 24 24 25 26 27 28 28 27 26 21 11 6 6 6 5 1 3 5 7 2 2 1 2 3 1 0 2 2 3 4 6 6 5 6 5 4 3 1 1 1 2 3 2 3 2 1 2 3 6 5 3 6 8 9 9 8 7 9 7 5 3 2 2 3 3 3 1 4 7 5 4 7 5 5 6 7 7 4 2 4 5 6 7 7 8
24 24 23 24 24 26 27 27 27 26 26 21 11 7 7 5 4 1 1 2 2 1 2 2 3 1 1 1 1 1 4 4 2 5 4 4 5 4 3 3 2 1 2 4 2 3 2 3 3 4 5 5 4 5 6 8 9 9 10 9 6 4 5 1 2 3 2 2 5 4 3 5 8 10 6 4 6 6 4 4 2 2 3 4 9 12 12
23 23 23 23 24 25 26 27 27 24 24 23 13 7 6 4 3 3 2 2 0 2 1 2 3 1 2 1 1 1 2 3 3 3 3 2 3 3 3 5 4 0 3 4 1 1 1 4 3 4 6 5 4 3 4 6 7 9 8 6 4 4 4 2 4 2 3 4 6 6 5 5 11 10 5 5 6 6 5 6 2 3 2 2 10 14 15
23 23 23 23 23 25 25 26 27 22 21 22 12 5 5 4 2 4 3 3 2 3 4 5 3 3 3 2 2 2 3 3 4 4 3 3 3 3 1 2 4 4 3 1 2 1 0 3 3 4 4 3 5 5 3 5 2 5 3 4 4 4 6 3 5 6 3 3 6 5 7 7 1 5 3 3 5 5 8 9 5 5 3 5 9 10 12
22 22 22 22 22 24 25 25 26 22 20 19 10 4 6 6 2 3 2 2 3 3 3 3 3 5 4 2 2 3 3 4 4 4 3 4 3 5 2 3 4 4 4 4 3 1 2 2 2 2 2 1 2 3 3 4 1 2 2 3 2 2 4 5 3 3 2 3 4 5 6 6 5 3 2 1 4 5 7 7 4 4 4 11 12 10 11
21 22 21 21 22 23 24 24 25 23 21 18 9 1 5 7 4 4 3 1 2 1 1 2 1 3 1 1 3 4 4 5 5 5 7 5 3 3 3 5 4 3 3 4 5 5 5 3 2 2 3 2 2 1 2 3 2 3 2 1 1 1 2 5 5 5 4 5 4 4 6 4 3 5 3 2 5 5 3 4 2 1 5 11 13 12 10
20 21 19 20 20 21 22 23 24 23 20 16 9 5 8 10 7 6 5 2 2 2 1 2 1 2 2 1 2 2 3 5 4 5 8 7 6 5 5 5 5 5 7 7 7 7 5 5 5 2 2 3 2 1 3 2 3 2 1 1 1 3 2 1 3 5 6 7 8 8 8 6 7 10 7 5 7 6 4 4 3 3 6 9 12 9 8
19 20 19 18 18 19 20 21 23 22 20 15 9 7 11 12 10 8 7 3 1 3 2 1 1 1 4 4 3 2 4 4 3 3 4 4 6 6 5 4 3 4 7 8 7 7 6 6 6 3 3 3 2 1 2 2 3 3 1 0 2 3 3 2 3 5 7 8 7 6 6 6 7 10 11 10 8 7 7 7 5 3 4 6 9 8 7
17 19 18 17 17 17 17 19 20 20 20 17 10 8 12 12 9 7 6 4 1 3 2 2 2 2 4 3 2 2 4 3 3 3 2 4 5 4 4 4 2 4 6 4 3 4 5 4 3 2 2 2 2 1 1 1 2 2 2 2 2 1 4 4 2 4 7 7 7 3 5 6 4 3 7 12 12 10 10 8 6 4 3 2 5 12 13
16 18 18 16 15 15 15 16 17 17 17 16 11 9 13 13 9 5 5 5 3 3 1 3 3 3 4 3 3 4 4 5 4 3 3 5 5 4 4 4 3 4 3 1 0 1 2 1 1 1 1 0 1 1 2 1 1 1 3 3 2 2 3 5 3 5 6 3 6 5 5 3 2 7 3 2 5 6 6 3 4 6 6 5 7 14 15
15 16 17 15 13 13 14 13 15 15 14 16 13 10 13 15 9 5 4 5 4 2 2 4 3 3 4 5 5 5 5 5 5 4 4 4 4 5 5 5 4 4 2 0 1 3 3 2 1 1 1 1 2 3 4 3 2 2 3 2 3 3 3 4 4 4 5 3 5 5 1 3 6 7 7 6 5 2 3 4 3 4 6 7 9 10 11
14 15 16 15 13 12 12 11 13 13 12 14 14 11 11 14 10 5 4 5 4 2 2 1 4 4 4 4 5 5 5 4 3 4 3 1 3 5 5 4 4 2 1 1 0 3 3 2 3 3 3 3 3 2 2 2 3 2 1 1 2 5 3 3 3 3 5 6 5 5 4 4 5 5 4 2 2 2 3 3 3 4 4 6 10 10 9
12 14 16 15 13 12 11 10 11 12 11 12 13 10 10 13 11 7 4 5 5 2 2 2 4 6 4 3 3 3 4 3 2 3 2 0 3 4 3 3 3 1 1 1 2 2 3 3 3 4 4 3 2 3 2 2 3 3 1 1 2 4 3 3 3 3 4 5 6 6 6 5 5 7 7 4 3 4 2 4 4 8 7 6 10 12 10
10 13 15 15 13 12 11 9 9 10 11 11 11 10 10 13 13 10 6 5 5 2 2 4 4 3 2 2 2 2 1 2 3 3 3 3 3 3 2 3 2 2 1 2 3 2 3 4 3 3 1 1 1 2 1 1 3 5 4 3 2 3 3 3 4 4 3 4 6 6 4 1 4 9 10 7 6 6 4 4 5 7 7 6 8 10 9
9 11 13 14 13 12 10 9 8 8 9 11 11 10 10 13 14 12 8 5 5 3 2 3 0 2 2 1 1 1 2 1 0 1 1 2 4 4 3 3 1 1 2 3 3 3 4 4 3 3 0 2 1 1 1 1 2 4 5 5 4 3 3 4 5 5 4 4 5 4 1 3 7 9 8 7 6 5 5 5 4 8 8 6 7 9 7
8 10 12 13 13 12 11 9 8 7 7 8 9 8 8 11 14 13 8 5 5 3 3 2 3 2 1 2 2 2 1 1 2 2 2 2 3 4 4 3 3 2 1 3 3 4 4 4 4 3 0 3 1 1 1 2 3 3 4 4 4 4 4 5 6 6 6 6 6 3 2 5 7 8 7 6 5 4 4 2 3 8 8 4 6 9 8
7 9 11 12 13 12 11 9 8 7 6 6 7 7 6 8 13 13 8 5 4 3 2 2 4 3 1 3 2 1 1 2 3 3 2 2 2 3 4 2 3 1 2 3 4 4 5 4 3 2 2 3 2 1 2 3 3 4 3 4 4 4 4 5 6 6 6 5 6 5 2 4 4 7 7 4 1 2 2 3 4 6 8 6 5 8 8
6 8 10 12 12 12 10 9 7 6 5 5 6 7 6 6 9 11 8 5 5 6 2 3 4 4 2 3 3 2 1 1 2 4 2 1 1 3 3 3 2 2 3 4 4 4 4 4 2 1 3 2 2 1 2 4 5 5 5 5 4 3 3 5 6 6 5 5 6 6 2 2 4 6 5 2 1 2 4 6 6 7 8 7 5 7 7
6 7 9 11 12 11 10 9 8 6 5 4 5 6 6 5 6 7 8 6 5 5 2 5 6 6 4 4 5 4 4 2 1 3 3 2 3 4 2 1 2 2 1 2 4 2 2 4 2 1 3 1 2 1 3 3 5 7 6 6 4 3 4 4 3 3 4 5 4 1 2 4 5 4 3 3 4 5 5 5 6 6 6 5 4 5 5
6 7 8 10 11 11 10 9 8 6 5 4 4 4 6 5 5 7 9 7 6 7 7 8 8 7 7 7 6 5 5 4 4 3 4 1 3 3 2 1 4 3 1 2 4 2 2 4 3 2 3 2 2 3 4 4 3 6 8 6 4 3 2 1 1 2 4 2 2 3 2 4 4 4 5 7 7 6 4 4 5 4 4 4 4 5 6
6 6 7 9 11 11 10 9 8 6 4 4 3 4 6 7 7 9 10 8 7 9 11 12 9 7 9 9 8 6 5 4 2 1 3 3 2 3 3 2 2 2 1 2 3 3 3 4 3 3 4 3 3 3 4 5 4 3 6 6 4 3 1 1 1 3 4 3 2 3 3 3 4 4 6 8 7 5 4 2 2 2 3 4 3 3 6
7 6 7 8 10 11 10 9 8 5 4 4 3 3 6 8 8 10 9 6 5 5 6 7 6 4 3 3 4 6 6 5 4 2 2 3 3 2 2 1 3 2 1 2 3 2 3 4 3 4 4 3 4 4 4 5 4 3 4 6 7 7 6 4 3 4 4 3 3 4 3 3 4 4 5 7 6 5 4 2 1 2 2 4 4 4 4
7 6 6 7 9 10 11 10 8 5 4 4 3 3 6 7 7 8 7 5 4 5 4 3 2 1 2 2 2 6 6 6 5 5 4 5 5 4 2 3 3 3 2 2 2 2 3 3 3 5 5 3 2 4 5 4 2 2 4 4 3 3 5 6 6 6 6 3 2 2 1 2 3 3 3 5 6 6 4 3 3 3 2 3 4 4 4
7 6 7 7 8 10 11 10 8 5 4 4 3 2 5 7 7 7 6 6 5 5 4 3 1 1 2 4 3 3 3 4 5 6 6 6 7 7 5 3 1 2 2 2 3 3 4 4 4 5 5 2 2 4 5 4 3 3 3 2 2 2 2 4 4 5 7 6 3 2 4 5 4 4 4 2 4 6 6 5 5 5 4 4 3 3 4
8 7 6 6 7 9 10 10 9 6 4 4 4 3 5 7 6 5 5 5 4 3 3 3 2 2 4 6 3 4 2 4 5 6 7 8 8 8 8 5 4 3 3 4 4 4 4 5 5 6 5 2 2 5 6 4 4 5 4 3 2 2 3 3 3 5 5 2 2 3 2 3 2 2 3 4 4 4 6 8 10 9 9 9 8 6 5
8 7 6 6 7 8 10 11 10 7 5 4 3 3 5 6 5 4 3 4 4 3 3 4 4 4 7 6 4 4 5 6 6 7 9 9 8 9 8 7 5 4 5 5 5 4 4 5 5 5 4 3 3 3 5 5 5 6 6 4 2 2 2 3 3 5 3 3 6 6 3 2 3 3 4 4 5 6 8 7 9 11 10 9 8 8 9
8 7 6 6 7 8 10 11 10 8 6 4 3 4 7 5 2 3 3 2 3 4 4 5 6 5 5 2 2 4 5 4 5 7 7 6 7 8 7 6 5 5 5 5 3 3 3 3 3 2 2 4 4 3 3 4 5 6 5 1 5 4 3 3 2 3 4 5 5 4 2 2 4 6 6 6 5 6 9 9 7 8 8 7 5 6 7
8 7 6 6 7 9 10 11 10 7 5 3 4 6 6 4 2 2 3 1 2 5 5 4 5 4 2 2 4 6 5 4 5 7 6 6 6 5 4 4 4 4 4 2 1 1 3 2 1 1 2 1 2 2 3 4 5 6 5 2 6 4 2 3 1 2 3 4 5 5 4 4 5 6 7 7 7 8 8 9 8 8 8 8 6 5 6
8 7 6 6 8 10 11 10 8 5 3 3 4 5 3 2 3 3 2 1 2 5 5 4 5 5 3 3 4 5 4 4 4 4 2 3 4 5 5 4 3 3 3 1 2 1 4 3 2 2 1 1 1 2 3 4 4 6 5 1 3 1 4 4 2 2 3 4 5 6 7 6 6 7 7 6 6 7 8 10 11 10 9 9 9 9 9
7 6 6 7 9 10 9 7 5 4 2 3 5 5 3 2 3 4 1 1 2 5 4 4 5 4 2 1 3 5 4 3 1 2 4 5 6 6 6 4 2 2 1 1 1 1 3 3 3 2 2 1 1 3 4 4 6 7 5 2 2 4 5 3 2 3 3 3 4 6 7 6 6 7 6 6 5 6 8 12 15 14 11 10 11 11 10
6 5 6 7 8 6 4 4 4 4 4 4 6 5 3 5 6 5 1 1 4 7 5 4 5 3 1 1 3 4 3 1 2 2 2 2 2 2 1 1 1 2 1 2 2 1 2 3 3 2 3 3 3 4 5 6 7 8 6 3 3 4 4 3 3 4 4 3 4 5 5 6 6 7 7 7 5 5 8 12 15 14 12 11 12 11 9
5 5 5 5 3 1 3 4 3 3 3 4 3 3 0 6 5 2 3 1 5 7 4 3 5 3 1 2 1 1 2 2 1 1 2 2 3 1 2 1 1 1 3 4 3 3 3 2 1 2 2 2 2 4 6 7 6 5 4 4 3 3 4 4 3 4 3 3 3 3 4 6 8 9 9 8 8 9 10 11 13 13 12 12 12 11 11
3 3 3 1 3 5 5 3 1 3 5 4 2 3 3 8 3 3 3 2 4 4 2 2 3 2 2 3 2 1 1 3 2 2 2 1 2 1 2 1 1 2 2 2 3 4 3 1 2 3 1 1 2 4 6 7 6 4 4 4 2 2 4 4 3 4 5 4 4 5 6 8 9 9 9 9 10 10 10 10 11 12 12 12 12 12 11
2 2 3 5 7 6 4 3 4 5 3 0 2 2 5 5 1 3 1 4 5 4 2 2 2 1 0 2 2 1 3 4 2 1 0 1 1 2 2 2 3 2 1 2 4 4 2 2 2 3 2 2 5 6 4 6 6 5 5 3 1 0 3 4 3 5 6 6 6 7 7 8 8 7 8 8 8 9 10 10 11 13 13 13 11 10 10
2 4 6 6 5 4 5 5 3 2 1 2 3 3 3 2 1 2 4 5 6 4 3 3 3 1 1 2 1 2 4 3 1 1 1 1 2 2 3 3 3 2 2 4 3 2 1 2 3 6 5 4 4 3 3 3 4 4 3 2 2 1 2 3 4 6 7 7 8 7 6 7 7 7 7 7 7 8 9 10 11 11 11 11 11 11 12
5 7 6 5 4 3 3 3 4 3 2 1 1 2 2 3 3 3 3 4 4 4 4 4 4 2 0 0 2 3 3 2 1 2 2 2 2 2 3 3 2 1 3 3 1 1 2 3 3 6 6 1 2 3 2 3 3 2 2 2 1 1 2 3 5 7 7 7 7 7 6 8 8 8 8 9 8 7 6 7 9 9 6 5 8 9 9
7 5 5 7 5 0 2 3 3 3 1 1 3 3 3 3 3 2 2 3 3 3 3 3 3 2 1 1 3 4 2 3 4 2 1 1 1 1 1 1 0 1 5 4 1 2 3 3 3 5 4 1 2 2 3 2 2 3 2 1 1 3 3 4 6 7 7 7 8 9 9 9 9 9 8 8 8 6 5 5 7 6 2 1 3 2 3
6 5 6 4 1 3 4 4 3 1 1 3 4 2 2 3 3 2 1 2 3 2 2 2 2 2 1 2 3 2 0 2 4 4 3 1 0 1 2 2 1 2 5 4 1 2 3 4 3 3 3 3 3 4 5 6 6 6 6 5 5 5 6 7 8 10 10 10 11 12 12 11 11 10 9 9 9 7 5 5 6 5 4 5 4 4 6
4 4 2 1 4 4 4 3 2 2 3 3 2 2 2 3 2 1 1 3 3 1 1 2 2 1 2 3 3 0 1 1 3 3 3 1 1 1 4 2 1 2 4 3 0 2 3 4 3 2 2 2 4 5 7 7 6 5 5 5 6 7 9 10 11 12 13 12 11 12 14 14 14 13 12 11 10 8 6 6 6 7 8 10 10 10 10
4 2 2 2 2 3 3 2 3 3 2 1 1 2 3 2 2 1 1 2 2 0 1 1 3 1 1 1 3 1 1 1 2 2 3 1 1 1 3 2 1 3 3 2 2 3 1 2 2 1 1 3 3 1 1 1 3 4 6 7 8 9 11 11 12 13 14 14 13 13 14 15 15 15 14 13 11 10 8 7 8 9 11 12 12 11 12
4 1 1 2 3 3 3 3 3 2 1 1 1 2 3 3 2 0 0 1 3 2 1 1 2 2 0 1 1 1 2 1 2 2 2 1 0 1 3 3 3 3 2 1 2 2 0 1 2 1 2 3 4 2 2 3 4 5 6 8 10 12 14 15 15 16 17 17 17 16 16 16 16 16 16 14 11 10 10 8 9 11 13 15 14 12 12
3 3 2 3 3 3 2 2 2 1 1 2 2 2 2 3 2 1 1 2 1 2 2 1 1 2 1 1 1 1 2 1 2 2 2 2 1 2 3 3 2 2 2 2 2 1 2 2 3 3 2 1 2 3 4 5 6 7 8 10 13 15 17 17 17 17 17 17 18 17 16 15 15 17 16 13 11 10 10 8 9 13 15 15 14 13 13
4 4 2 2 1 0 1 1 2 2 2 3 3 2 2 2 2 2 2 0 1 1 2 2 1 2 2 1 1 1 0 1 2 2 1 2 2 3 3 3 3 3 3 4 5 4 2 3 3 4 4 4 5 6 7 8 8 10 11 12 13 14 15 15 14 13 14 15 16 16 15 15 16 16 14 12 11 10 8 7 11 15 15 12 11 12 14
5 3 2 0 1 2 1 2 3 3 3 3 2 2 2 3 2 1 1 1 0 0 0 1 1 3 3 0 1 2 1 1 2 2 1 2 4 3 3 3 4 4 4 4 5 5 4 5 4 5 6 7 7 8 9 10 9 10 10 10 11 12 13 14 14 14 14 16 17 16 15 15 16 14 11 9 8 6 7 12 16 18 16 12 11 12 13
4 2 1 1 2 3 3 4 4 3 1 1 1 1 3 4 2 1 0 1 1 1 2 1 2 3 2 1 2 3 2 1 1 2 1 2 3 3 3 3 4 4 4 6 6 5 5 6 5 7 8 9 11 12 12 11 11 11 11 11 12 13 14 14 15 16 17 18 18 16 16 16 15 12 8 5 5 8 12 16 19 20 18 15 13 13 11
3 2 2 2 2 3 5 6 5 2 1 2 2 1 3 3 1 2 1 1 1 1 2 2 3 3 2 1 2 4 1 0 1 1 1 2 3 3 3 4 4 4 5 5 5 6 6 6 6 8 9 11 12 12 12 12 12 13 14 13 13 13 14 13 14 16 18 19 17 15 15 16 13 7 6 8 11 14 16 17 19 19 18 17 15 13 11
3 2 2 2 3 4 4 5 4 0 1 1 2 2 2 2 1 1 0 1 1 1 2 2 3 4 1 2 2 4 3 2 2 2 1 3 4 3 3 5 6 6 5 5 6 6 5 6 7 8 10 11 11 11 11 12 12 13 13 13 13 14 13 13 14 16 18 19 16 14 16 16 10 6 9 10 12 15 17 18 19 19 18 18 18 15 13
4 3 3 4 5 3 3 5 5 3 2 2 4 4 2 0 1 0 2 1 1 2 3 2 2 2 1 3 3 3 2 2 3 3 3 4 5 4 4 5 6 5 5 5 6 5 5 6 7 8 9 11 11 12 13 13 13 13 14 15 15 14 14 15 16 16 16 17 17 15 15 14 8 9 13 14 13 16 17 18 19 19 19 20 21 18 16
3 4 4 6 7 4 1 1 2 1 2 3 4 3 1 1 1 1 1 2 3 4 3 1 1 2 0 1 2 2 2 2 3 4 4 4 4 5 6 6 5 5 5 5 5 5 5 6 7 7 9 10 11 12 13 13 13 14 15 16 16 16 16 17 17 15 13 15 16 15 11 9 8 10 14 13 14 16 16 17 20 21 20 19 19 17 15
4 4 4 5 6 6 4 2 2 1 2 3 3 1 1 2 2 0 1 2 4 4 2 2 2 2 1 1 2 2 2 3 4 5 4 3 3 4 5 5 5 4 4 4 4 5 5 5 6 7 9 10 11 13 14 14 14 14 15 16 16 15 15 16 15 12 9 11 12 10 6 5 7 12 14 12 11 13 14 14 17 20 18 16 15 15 13
Wind_Direction
351 351 349 349 350 351 354 355 355 354 349 351 352 337 300 263 268 78 79 174 223 265 279 205 250 83 38 319 56 12 324 5 9 345 326 319 316 83 114 346 346 346 335 299 231 146 34 34 52 79 80 50 29 19 5 350 349 351 338 353 12 351 283 312 353 124 115 102 134 253 285 303 280 247 244 252 243 295 281 302 340 279 160 101 111 130 131
352 352 349 348 349 350 352 354 356 358 356 352 347 328 303 303 317 103 114 219 249 273 296 213 154 85 322 248 109 36 12 17 8 20 16 353 348 24 65 93 312 316 333 325 29 85 63 33 45 57 82 71 21 20 18 4 15 30 3 355 353 325 263 253 269 204 171 157 192 220 226 249 242 213 227 308 357 352 335 344 359 290 283 54 90 125 134
352 352 349 348 349 349 350 352 356 358 357 354 343 307 304 310 291 185 144 216 240 280 358 322 97 111 199 187 127 137 88 29 354 1 11 0 354 0 37 68 241 326 329 313 67 110 176 180 102 82 84 87 49 34 26 14 26 32 356 333 329 325 318 307 265 236 197 176 254 225 199 212 250 239 253 321 329 329 339 338 301 284 331 38 83 126 136
352 352 349 349 350 349 349 350 353 356 356 353 335 291 296 298 274 263 132 207 231 49 3 350 52 84 176 101 42 29 82 93 13 339 346 14 355 342 14 340 279 159 273 258 156 147 180 146 156 146 108 97 78 47 39 39 24 357 340 338 338 320 312 6 76 340 349 17 329 313 179 191 218 231 247 283 294 310 329 312 324 17 0 54 113 136 144
352 352 350 350 350 349 350 349 350 352 353 350 334 276 271 286 312 359 15 316 1 106 8 6 56 12 339 35 343 3 54 108 106 21 358 17 337 333 10 323 295 194 254 243 134 37 130 126 128 109 97 100 103 79 58 60 20 333 328 344 346 308 290 148 139 252 299 355 337 340 344 267 217 206 213 233 269 317 299 264 299 37 351 125 135 144 149
352 353 352 351 351 351 350 351 351 347 344 345 337 283 289 311 8 26 358 316 345 47 11 9 62 59 21 353 308 5 42 37 58 52 35 41 343 329 42 326 335 21 355 321 104 14 26 106 91 75 97 140 145 143 104 74 7 305 326 358 346 306 284 255 200 215 230 319 321 317 330 335 125 133 111 218 244 276 268 263 299 5 28 138 151 152 144
352 355 353 351 353 353 351 354 354 347 338 331 313 279 327 339 27 28 328 312 3 41 12 349 53 50 20 343 0 25 52 52 40 12 19 66 23 341 34 61 8 14 10 13 69 62 14 74 97 36 18 100 156 160 115 90 29 319 13 20 6 302 304 314 288 258 238 259 290 291 306 355 49 102 91 5 276 265 258 269 316 20 104 145 152 147 138
352 356 354 352 354 354 354 357 358 353 345 330 309 316 359 346 11 358 311 339 24 24 253 266 125 94 335 298 46 34 38 62 59 13 10 53 76 10 51 69 37 39 55 45 72 64 18 25 91 27 342 347 317 310 63 68 27 353 338 7 68 228 330 352 324 300 270 227 226 265 279 307 303 257 228 236 271 270 264 274 310 77 148 150 144 143 146
352 354 354 354 355 355 357 2 4 1 357 345 339 25 8 343 350 339 307 332 15 293 281 283 229 139 136 105 68 70 67 64 62 40 26 31 49 49 63 74 59 61 71 62 60 57 30 31 56 38 343 7 355 8 36 3 327 328 298 281 255 238 255 316 266 270 263 225 208 228 246 254 262 260 245 219 232 240 233 227 211 198 196 168 149 150 154
351 352 354 354 356 357 359 6 10 9 12 7 352 9 10 350 345 339 311 298 207 240 229 180 252 68 76 63 34 60 87 69 10 30 53 47 42 37 41 67 83 85 78 60 38 30 22 25 31 6 347 11 355 20 36 330 308 339 18 289 262 260 269 246 208 243 250 217 197 223 243 241 247 249 237 221 218 230 234 221 201 214 245 205 169 149 132
349 350 354 356 356 356 359 9 14 14 19 15 342 343 11 355 337 334 312 298 274 253 248 80 72 92 99 100 87 81 89 79 9 357 70 88 61 44 33 26 42 93 77 44 11 15 2 359 5 334 329 339 332 18 26 271 283 330 330 297 264 249 277 274 238 256 249 194 156 189 239 236 255 269 227 214 206 213 226 219 183 128 27 354 139 137 142
347 349 352 356 355 354 357 9 15 14 17 12 342 337 6 356 332 322 314 308 300 272 252 64 61 105 124 127 114 90 78 77 56 34 74 82 66 63 57 29 30 92 90 349 277 192 237 204 193 243 217 283 318 329 275 241 124 202 264 282 285 196 235 260 262 267 265 166 147 203 237 220 69 45 39 178 181 203 217 192 152 131 97 78 118 137 151
345 348 350 354 355 353 353 4 14 13 13 11 358 350 4 360 341 323 332 318 295 305 63 86 101 116 122 118 105 88 79 78 73 70 76 79 67 59 56 50 60 92 126 57 355 264 242 167 172 258 105 126 259 241 235 217 160 216 243 269 304 294 251 252 251 252 265 236 188 204 210 96 96 76 57 61 72 95 134 118 112 114 112 121 130 136 147
342 346 348 351 354 350 347 357 9 9 8 5 354 345 3 7 353 341 350 321 302 2 44 138 138 117 101 103 111 116 108 97 90 92 88 106 99 72 52 62 72 72 108 83 331 265 254 192 200 204 166 191 220 198 204 198 179 229 279 101 288 301 315 301 267 232 246 256 230 184 145 140 146 129 119 134 125 128 179 202 168 146 148 145 143 152 161
339 347 347 348 352 349 344 348 0 4 4 1 349 343 7 13 354 335 329 307 302 356 27 33 99 115 119 114 141 163 135 139 152 119 101 337 89 76 57 68 59 12 1 285 267 259 263 259 244 221 192 188 169 135 153 191 172 189 236 190 237 267 299 322 305 254 234 255 254 220 202 209 188 150 135 130 102 101 159 246 199 172 187 178 159 169 174
338 347 347 347 348 348 343 342 350 355 356 2 1 353 3 11 358 339 327 316 308 309 52 41 56 115 148 138 193 261 257 184 176 152 168 188 145 119 94 80 37 328 292 263 269 271 266 258 260 264 237 106 87 114 142 190 171 170 187 208 236 254 264 278 277 266 250 252 256 243 238 291 101 114 112 103 92 97 133 224 205 165 160 158 160 170 170
338 345 346 347 346 345 343 342 343 347 352 0 2 350 349 2 1 346 331 318 305 305 89 80 306 210 189 174 182 240 260 226 242 255 195 157 162 159 139 134 159 312 306 273 240 246 256 247 250 267 242 96 56 0 59 226 212 174 170 191 217 235 240 236 240 252 251 242 248 252 245 86 104 110 108 109 114 130 181 210 182 143 141 153 160 157 150
334 342 345 348 346 344 343 341 341 341 344 352 349 337 333 350 357 349 334 314 305 328 69 53 309 314 339 328 15 48 292 316 306 255 170 148 197 177 148 177 197 165 259 268 252 249 256 251 254 267 146 103 88 328 101 154 220 218 189 196 214 218 221 228 235 240 238 233 244 256 91 102 124 130 119 117 136 180 204 198 118 124 131 143 156 149 139
330 339 344 348 349 346 340 339 341 339 340 350 349 337 328 347 359 355 341 325 314 322 46 21 322 330 331 298 329 17 302 318 306 266 192 156 206 161 142 207 244 187 202 251 263 257 253 249 252 263 215 162 165 217 169 158 213 253 233 217 224 219 214 222 230 240 243 236 240 236 166 123 142 131 108 100 199 215 147 104 93 107 109 100 118 130 126
326 333 342 348 350 347 339 335 337 336 342 355 350 334 321 338 360 358 350 348 323 305 357 38 335 321 319 272 278 297 292 258 252 262 275 95 185 222 204 198 220 218 203 230 251 249 254 259 242 233 249 207 140 236 219 188 206 236 241 239 237 227 227 226 219 228 241 239 244 248 205 145 156 135 106 38 316 115 107 104 97 92 92 85 89 115 130
316 325 339 348 349 348 341 333 333 332 338 355 354 332 318 331 1 354 342 338 307 283 349 23 339 313 308 297 299 311 312 321 323 295 312 93 162 243 272 139 195 235 205 239 255 249 275 282 279 271 268 220 108 185 244 220 207 209 224 255 258 226 239 252 235 230 243 239 240 259 121 131 137 134 112 71 85 109 115 112 111 110 112 108 99 113 132
300 315 333 345 349 348 342 333 331 327 325 345 356 322 313 335 8 349 329 317 286 273 294 313 306 292 289 292 297 299 303 335 15 345 313 328 169 231 300 154 218 255 5 304 277 293 311 288 293 298 273 233 178 203 216 231 227 189 191 227 251 211 200 293 312 280 288 301 65 80 117 145 133 117 113 108 109 111 99 101 126 139 131 128 135 139 141
285 301 324 339 345 349 346 338 332 323 317 329 335 311 317 335 347 337 322 301 278 277 279 274 264 255 254 254 251 255 275 302 335 321 299 303 247 226 245 245 251 283 352 317 308 323 307 295 316 326 299 281 278 254 214 220 246 199 181 200 228 230 202 31 307 268 280 277 178 152 160 160 142 119 112 114 120 122 110 113 142 127 113 122 129 136 143
274 290 314 330 339 347 350 342 330 317 306 306 307 318 326 331 338 339 328 298 281 294 275 253 246 251 256 236 219 220 226 237 240 224 252 290 286 252 245 346 356 326 313 17 1 331 297 299 310 301 292 293 297 282 248 233 240 230 210 211 213 214 214 221 240 243 245 230 182 161 162 165 169 166 141 136 144 148 148 157 117 79 110 135 125 120 133
264 281 303 319 335 346 349 342 330 312 287 284 297 329 327 324 336 343 330 301 296 309 292 253 213 128 34 21 254 234 218 205 209 210 208 230 256 271 303 18 9 323 328 28 4 284 268 271 269 269 273 284 283 265 262 271 279 249 245 245 227 203 209 215 221 228 235 231 146 118 149 188 203 213 183 159 161 160 151 132 104 98 108 118 125 147 164
254 269 290 311 334 344 344 340 329 308 275 268 275 305 314 316 328 334 321 306 298 286 276 278 266 140 280 273 238 207 187 187 204 217 217 220 236 254 274 307 309 269 288 298 278 270 270 268 269 269 266 269 289 273 270 291 314 294 260 233 106 103 209 229 221 225 239 245 245 235 226 214 215 237 253 231 184 176 176 173 162 155 158 161 172 191 206
246 258 281 307 330 339 339 336 328 313 283 264 259 267 294 308 321 331 328 322 310 265 254 285 341 30 307 276 215 150 187 228 234 240 237 235 237 240 249 258 247 237 255 260 256 259 262 258 257 261 262 271 300 289 280 283 291 284 265 236 193 205 253 267 250 233 232 235 16 1 294 242 233 260 280 287 275 240 222 202 185 183 192 192 188 194 216
242 252 275 301 324 333 332 330 328 317 292 274 268 278 283 286 299 314 321 317 304 292 299 304 306 316 305 280 212 195 235 241 245 253 247 242 241 239 241 246 244 243 250 252 253 252 254 267 277 277 287 313 308 282 283 286 274 262 260 272 301 316 335 348 294 267 287 33 47 37 11 312 320 331 312 299 297 295 288 259 205 195 210 214 203 205 213
239 248 270 295 317 324 325 328 328 313 294 296 314 292 266 247 260 310 309 289 286 288 294 288 276 281 300 301 220 244 248 233 246 260 255 243 238 236 240 246 248 254 260 259 273 277 268 293 315 309 323 328 317 294 281 275 259 255 266 353 61 56 22 12 349 306 329 5 26 33 23 316 312 318 315 306 294 286 290 285 254 227 234 241 236 229 225
236 246 269 292 309 317 323 326 320 303 290 306 307 277 245 186 126 341 309 268 293 297 291 287 288 293 304 283 257 251 231 214 244 253 246 245 242 232 243 260 264 277 280 273 52 316 279 278 294 172 149 1 322 287 270 265 259 267 281 40 79 67 348 329 321 296 310 332 344 339 317 298 303 303 295 288 283 274 267 267 269 267 257 250 241 220 210
234 247 268 291 307 315 321 320 307 289 298 318 297 274 246 142 85 0 343 141 292 296 285 276 286 288 277 261 265 259 230 216 237 252 272 335 1 25 23 5 355 336 326 8 80 308 278 269 266 255 207 136 145 230 262 268 261 261 274 12 64 317 261 255 263 293 301 306 308 299 286 276 273 272 271 279 298 308 299 280 269 264 262 260 251 230 212
234 248 273 297 310 315 317 307 279 245 237 288 287 287 307 317 290 287 318 61 296 284 279 278 281 281 280 277 285 282 261 222 193 7 16 26 24 28 36 32 2 343 7 96 140 252 269 259 251 256 242 196 203 239 245 249 253 257 267 324 338 271 263 264 275 275 267 268 277 280 277 271 262 264 279 301 325 337 320 294 274 261 257 260 255 241 219
231 257 287 306 317 319 298 259 243 208 192 231 254 250 282 319 296 262 229 354 288 271 270 280 277 275 301 301 300 315 315 328 70 15 359 46 40 7 29 66 330 316 232 197 198 229 260 258 255 246 218 205 246 268 257 250 256 263 266 260 246 258 276 284 267 257 253 253 262 270 281 293 295 290 289 288 281 272 277 282 278 267 251 243 243 236 211
236 273 299 314 318 261 196 182 155 150 188 231 215 168 16 342 337 182 154 316 281 261 257 270 270 269 265 250 251 357 324 293 207 265 266 171 140 219 267 294 0 279 236 229 227 240 258 260 253 241 213 186 226 260 262 260 262 268 277 268 248 264 283 277 271 286 303 321 319 305 298 298 296 291 285 278 268 256 252 261 271 267 250 238 235 227 206
244 288 310 284 170 170 170 166 182 241 249 250 143 111 343 331 342 138 127 334 278 251 233 240 257 281 309 290 289 87 253 255 227 228 254 179 138 218 267 264 231 246 248 233 237 250 252 215 198 227 203 129 203 234 254 270 261 223 226 257 263 279 283 281 292 309 315 322 318 302 289 285 287 290 289 285 280 272 258 251 257 259 251 243 236 225 216
266 253 180 162 159 162 183 223 244 248 248 327 67 11 318 322 10 144 223 272 260 264 293 280 263 277 292 289 316 320 254 254 243 185 26 39 34 287 279 248 233 240 243 238 253 259 234 158 208 243 223 206 230 227 240 283 276 225 201 223 235 296 291 298 307 304 299 298 291 285 283 286 292 299 302 300 298 290 274 258 253 252 249 244 236 219 210
220 169 159 160 165 198 226 215 186 151 83 37 8 323 303 311 157 200 235 235 226 229 261 281 289 288 172 192 251 272 267 265 207 139 147 175 196 221 239 242 237 228 230 234 245 258 201 170 231 257 252 246 257 239 187 226 254 229 187 166 150 188 292 314 315 305 303 299 294 293 298 299 300 304 306 308 308 297 279 263 255 252 251 249 244 224 207
163 152 164 198 220 235 223 172 115 78 46 357 323 275 228 207 209 218 217 202 192 198 227 265 283 287 307 176 229 240 265 291 269 212 202 210 212 207 215 224 222 241 262 261 171 163 224 218 236 259 262 262 356 310 242 201 198 166 119 112 136 249 299 313 307 302 302 302 303 309 312 311 311 312 309 309 309 299 283 271 263 258 259 276 272 248 209
150 157 206 233 239 301 87 124 114 87 89 229 249 243 222 219 230 225 195 188 192 200 222 253 258 243 226 289 244 230 242 289 291 290 277 243 249 246 243 249 146 271 280 292 102 172 245 255 250 264 268 168 144 249 241 180 117 89 81 60 3 341 325 306 295 294 296 300 305 307 303 302 305 306 306 309 306 293 282 277 267 255 235 3 317 304 130
183 221 237 231 177 85 101 129 137 134 224 233 234 233 235 239 237 215 187 210 221 209 196 231 247 221 199 250 259 245 247 295 300 318 328 296 215 292 298 311 29 286 289 302 114 176 261 281 279 288 326 3 13 18 35 41 35 30 23 7 353 339 320 303 296 294 292 290 292 294 293 295 298 298 298 303 306 300 283 263 253 231 180 155 152 125 98
225 245 254 72 80 96 124 149 184 238 249 244 231 236 248 238 223 226 258 252 244 212 175 228 250 205 189 249 272 281 79 299 296 305 307 303 114 294 295 301 128 262 294 316 141 224 272 306 324 344 356 328 334 9 26 18 4 358 346 325 307 299 298 296 295 293 290 286 285 288 290 292 294 294 292 294 298 295 273 244 233 219 195 175 155 135 122
306 358 51 71 89 124 164 199 224 235 248 274 277 263 258 239 201 191 271 276 283 258 149 237 287 313 117 274 293 351 65 319 280 274 288 301 94 301 298 296 207 257 290 327 318 291 304 353 344 335 218 237 248 228 160 266 272 270 275 280 284 288 290 291 290 288 285 285 285 284 285 287 290 291 291 291 290 287 274 247 224 208 189 165 144 133 132
299 306 229 232 216 191 204 225 226 227 268 300 285 271 268 258 247 227 188 259 290 304 94 75 330 330 345 236 259 85 73 9 291 269 271 273 228 280 282 274 275 296 320 336 302 291 85 34 345 26 169 212 233 227 239 276 285 285 286 287 287 287 287 288 290 290 289 288 285 281 281 284 286 286 285 283 279 278 275 250 214 184 158 144 141 140 135
230 214 237 247 224 197 218 240 215 192 258 247 231 243 257 252 256 279 202 178 211 257 240 204 258 284 263 220 215 127 82 20 273 260 259 264 274 286 287 293 312 321 308 293 287 262 122 81 40 55 86 204 289 324 327 318 308 300 295 291 289 289 289 288 288 288 287 286 284 282 283 285 286 286 286 282 273 272 267 240 193 163 148 145 151 156 156
213 192 204 261 251 228 328 271 217 214 236 235 232 243 265 267 275 296 290 242 146 196 216 207 264 288 282 219 207 236 196 188 225 241 266 297 297 293 299 313 314 299 298 312 320 331 26 71 62 42 22 0 343 331 319 310 304 301 299 296 294 292 290 288 286 285 284 283 283 285 287 285 282 283 284 280 275 273 256 208 169 152 147 146 149 158 170
236 197 173 283 291 277 252 228 229 231 233 241 254 278 279 268 264 268 271 277 331 25 306 44 318 287 282 281 261 251 210 198 249 275 296 296 296 304 320 313 300 304 322 325 317 327 7 42 43 17 3 354 339 327 320 316 312 307 302 298 295 291 288 285 283 280 279 280 280 281 281 279 279 282 283 278 269 244 190 164 150 143 141 144 150 161 175
253 241 234 248 257 239 220 226 242 247 253 298 307 274 250 249 240 128 227 249 53 24 350 332 285 270 271 332 297 274 217 182 273 308 328 302 300 320 329 304 297 315 326 318 319 349 27 37 23 6 357 346 334 327 323 318 312 307 301 296 291 288 285 284 281 278 276 276 277 276 275 275 277 278 268 238 191 153 138 135 136 139 143 146 151 158 168
272 263 248 249 246 227 220 230 236 215 65 7 329 277 256 252 189 89 14 344 33 0 319 319 300 278 236 164 289 298 319 43 292 307 322 285 283 300 312 305 309 320 320 325 352 25 36 26 13 4 352 340 332 327 323 316 311 307 302 295 290 290 290 288 286 283 277 272 270 269 269 270 270 254 210 184 161 141 128 122 125 132 135 136 138 144 153
279 269 246 253 260 259 272 288 291 341 81 333 284 267 265 267 122 121 266 352 24 318 292 322 320 304 326 56 346 315 318 323 308 314 304 280 286 309 323 315 314 323 339 7 30 34 23 13 8 360 346 338 335 332 326 320 314 309 305 300 298 298 296 290 287 284 278 273 269 265 263 262 252 192 173 176 158 141 136 134 132 134 139 146 154 163 170
272 260 248 253 261 278 341 341 329 339 7 308 274 258 253 305 53 312 287 329 341 284 262 243 259 280 355 32 349 307 305 317 307 295 286 287 294 305 309 308 317 340 11 34 37 26 15 9 3 353 346 343 340 335 330 325 320 315 311 307 305 303 299 294 289 282 275 271 268 259 255 257 242 183 177 181 166 153 155 157 155 157 165 171 174 178 178
267 251 242 244 250 257 278 272 257 283 325 302 272 251 220 180 188 262 314 316 285 277 282 287 247 234 227 0 306 292 309 318 294 283 291 307 319 321 323 335 0 21 32 36 33 24 17 9 0 356 353 346 340 337 333 330 326 321 316 312 309 306 301 297 292 282 268 264 262 253 245 250 236 196 182 177 168 167 173 175 171 170 174 175 172 171 168
249 262 266 257 253 257 257 222 178 191 283 279 270 268 226 210 212 234 6 304 274 282 325 341 296 276 316 346 317 299 294 287 286 295 310 340 13 2 356 15 39 42 34 33 31 23 16 9 5 5 358 346 341 342 340 337 334 332 328 325 320 312 305 302 298 287 266 256 254 241 218 217 208 184 170 170 180 181 178 175 172 168 164 161 163 164 160